Погода Борзя

Погода Борзя : погода сейчас, прогноз погоды и архив. Всё, что Вы хотите узнать о погоде Борзя!

Хотите узнать прогноз погоды Борзя? Тогда Вам сюда: Погода Борзя

Поиск расширенной информации на нашем сайте:

Другие новости

Новости СМИ2

Главная страница сайта

Новости сайта

03.07.2017

Напоминаем, что на нашем специализированном сайте Метеоцентр.Азия вы можете получить высокодетализированные автоматические прогнозы погоды по пунктам России, СНГ и мира в авиационном формате (включающие направление и скорость ветра, видимость, явления погоды, количество и форму облачности, нижнюю и верхнюю границу облачности).


Погода Борзя - сегодня

Время (UTC), дата Ветер
(°,м/с) 
Видим.   Явления Облачность Т
(°С)
Тd
(°С)
f(%) Тe
(°С)
Pmin
(гПа)
dP
(гПа)
Po
(мм)
O2
(г/м3)
Тmin Tmax R s Состояние
почвы
00 21.05.18 140 (ЮВ) 9-16{17}  20000 м    9/3 600 м кучево-дожд., средняя, верхняя 
[Cb calv|Ac lent|Ci sp]
+19.6 +7.9 47 +19  999.2  -1.3  693  259  +14.5        сухая 
12 21.05.18 300 (СЗ) 8-12{16}  10 км  ливневой дождь  10/8 600 м кучево-дожд., средняя 
[Cb calv|Ac As]
+3.7 +1.6 86 1007  2.1  696  276    +24.3     
15 21.05.18 320 (СЗ) 6{13}  н/о  {ливн. осадки}  10/5 600 м кучево-дожд., средняя 
[Cb calv|Ac As]
+2.9 -0.5 78 1006.9  -0.4  695  277           
21 21.05.18 250 (З) 20000 м    8/0 средняя, верхняя 
[Ac lent|Ci sp]
-1 -5.7 70 -2  1007.9  -0.1  695  282           
00 22.05.18 290 (З) 6-10{10}  20000 м    9/5 600 м кучево-дожд., верхняя 
[Cb calv|Ci sp]
+3.3 -5.9 51 1005.5  -1.1  694  277  -1.2      влажная 
12 22.05.18 260 (З) 3{15}  20000 м  слаб. ливневой дождь  10/10 600 м кучево-дожд. 
[Cb calv]
+3.3 +0.6 82 +2  996.8  -0.3  688  274    +8.7  0.6     
18 22.05.18 240 (ЮЗ) н/о  {ливн. осадки, снег}  10/8 600 м кучево-дожд., средняя 
[Cb calv|Ac As]
+2.6 -0.5 80 +1  994  -1.5  686  274           
21 22.05.18 230 (ЮЗ) 20000 м    9/3 600 м кучево-дожд., средняя, верхняя 
[Cb calv|Ac lent|Ci sp]
+1.7 -3.3 69 -1  994  -0.3  686  275           
00 23.05.18 230 (ЮЗ) 20000 м    9/0 средняя, верхняя 
[Ac lent|Ci sp]
+6.4 -1.5 57 +5  992.5  0.1  686  270  +1.5      влажная 
03 23.05.18 270 (З) 20000 м    9/4 600 м кучево-дожд., средняя, верхняя 
[Cb calv|Ac lent|Ci sp]
+11.2 -1.8 40 +10  989.9  -1.1  685  265           
06 23.05.18 300 (СЗ) 20000 м    9/3 1000 м средняя, верхняя 
[Cu med, cong|Ac trans|Ci sp]
+13.4 -1.2 36 +13  989.3  685  263           
12 23.05.18 310 (СЗ) 4{13}  20000 м    9/3 600 м кучево-дожд., средняя, верхняя 
[Cb calv|Ac lent|Ci sp]
+11.7 +2 51 +11  993.2  2.2  688  265    +15.1       
15 23.05.18 270 (З) н/о    9/4 600 м кучево-дожд., средняя, верхняя 
[Cb calv|Ac lent|Ci sp]
+9.7 +2.8 62 +10  995  1.1  688  267           
18 23.05.18 270 (З) н/о    9/4 600 м кучево-дожд., средняя, верхняя 
[Cb calv|Ac lent|Ci sp]
+8.1 +3.9 75 +8  996.8  1.3  689  269           
21 23.05.18 190 (Ю) 20000 м    4/0 средняя, верхняя 
[Ac lent|Ci sp]
+5.5 +3.4 86 +6  999.6  1.8  691  272           
00 24.05.18 360 (С) 20000 м    3/1 1000 м верхняя 
[Cu hum|Ci fib]
+11.2 +4.1 62 +12  1000.3  2.2  692  267  +4.6        сухая 
03 24.05.18 310 (СЗ) 20000 м    8/3 1000 м верхняя 
[Cu hum|Ci fib]
+15.9 +0.9 36 +17  1000.2  693  264           
06 24.05.18 310 (СЗ) 20000 м    9/3 1000 м верхняя 
[Cu med, cong|Ci fib]
+18.6 +0.7 30 +20  999.9  0.4  693  261           
09 24.05.18 100 (В) 20000 м    9/3 1000 м верхняя 
[Cu med, cong|Ci fib]
+19.8 +0.3 27 +21  999.9  0.3  694  260           
15 24.05.18 060 (СВ) н/о    9/1 1000 м кучево-дожд., средняя, верхняя 
[Cb calv|Ac lent|Ci sp]
+9 -0 53 +8  1008.7  3.1  698  272           
18 24.05.18 070 (В) н/о    9/0 средняя, верхняя 
[Ac lent|Ci sp]
+5.9 -0 66 +6  1010.9  1.3  699  275           
21 24.05.18 070 (В) 20000 м    9/0 средняя, верхняя 
[Ac lent|Ci sp]
+4 -0.3 74 +4  1012.2  0.6  699  278           
00 25.05.18 060 (СВ) 20000 м    3/0 верхняя 
[Ci sp]
+13.5 -0.3 39 +14  1010.3  0.7  700  269  +3.2        сухая 
03 25.05.18 090 (В) 20000 м    1/0 верхняя 
[Ci fib]
+18.5 -5.7 19 +19  1008.4  -0.5  699  264           
06 25.05.18 120 (ЮВ) 20000 м    1/0 верхняя 
[Ci fib]
+21.2 -4.7 17 +21  1006.2  -1.4  698  261           
Время (UTC), дата Ветер
(°,м/с) 
Видим.   Явления Облачность Т
(°С)
Тd
(°С)
f(%) Тe
(°С)
Pmin
(гПа)
dP
(гПа)
Po
(мм)
O2
(г/м3)
Тmin Tmax R s Состояние
почвы

Для получения пояснительной информации подведите курсор к названию столбца.

ПОГОДА Борзя - архив

Всё, что Вы хотите узнать о погоде Борзя - удобно и подробно!

Выберите нужную дату (начиная с 1 января 2015* года) и нажмите кнопку "Найти".
Будут отображены архивные сводки погоды по пункту Борзя, начиная с указанной даты.


Отображать данные в формате CSV (для использования в таблицах Excel)


Внимание! Наш архив погоды предназначен исключительно для личного некоммерческого использования в познавательных целях. Если Вам необходимы официальные справки о состоянии погоды (для производственных, юридических, коммерческих и т.п. целей), обращайтесь в органы Росгидромета.

*Примечание: данная дата относится к архиву по метеостанциям СССР (Россия, СНГ, Балтия).
Архив по метеостанциям Зарубежной Европы и Азии (кроме Китая) хранится 10 дней, по другим регионам земного шара (Китай, Африка, Америка, Австралия, Океания) - 1 день.

Борзя - район местоположения метеостанции


Название, широта, долгота, высота метеостанции:
Борзя 50.4°ш. 116.5°д. 676 м над ур. моря [Российская Федерация]

Дополнительная информация

В oтличие oт бoльшинства пoгoдных сайтoв мы публикуем пoдрoбную метеoинфoрмацию в детальнoм прoфессиoнальнoм фoрмате.

Характеристики температуры и влажнoсти вoздуха измеряются на высoте 2 м в тени вдали oт зданий и деревьев.
Скoрoсть ветра измеряется на высoте 10 м (на урoвне рoста челoвека скoрoсть ветра ниже в 1.5-2 раза). Если метеoстанция нахoдится в гoрoде или в лесу, тo скoрoсть ветра занижена на 2-4 м/с пo сравнению с oткрытым местoм. Скoрoсть ветра над акватoриями крупных рек и oзёр, а также на вершинах хoлмoв на 2-5 м/с выше, чем в oбычных услoвиях.
Атмoсфернoе давление в разных тoчках местнoсти мoжет значительнo oтличаться oт давления на метеoстанции, в зависимoсти oт услoвий рельефа (при пoдъёме на 10 м давление пoнижается примернo на 1 мм рт.ст.).